When you browse on this site, cookies collect data to enhance your experience and personalize the content and advertising you see.
Visit our Privacy Policy to learn more. By continuing to use the site, you agree to this use of cookies and data.
  • In Portugal
  • List of Countries
  • For 7 days
  • Water Temperature
  • Weather Map
  • Weather Widgets
  • user-avatar
    Login

    Hourly Weather Dushanbe

    Today, 1 April, Wednesday

    Time Temperature Precipitation Wind Pressure Humidity
    00:00 +12°C° 0.7 mm 1 mps 684 mmHg 94%
    01:00 +12°C° 0.7 mm 1 mps 684 mmHg 92%
    02:00 +12°C° 0.7 mm 1 mps 684 mmHg 91%
    03:00 +11°C° 0.8 mm 1 mps 685 mmHg 91%
    04:00 +11°C° 0.8 mm 1 mps 685 mmHg 91%
    05:00 +11°C° 0 mm 1 mps 685 mmHg 91%
    06:00 +11°C° 2 mm 1 mps 685 mmHg 92%
    07:00 +11°C° 2 mm 1 mps 685 mmHg 93%
    08:00 +10°C° 2 mm 1 mps 686 mmHg 94%
    09:00 +9°C° 3.9 mm 2 mps 686 mmHg 93%
    10:00 +9°C° 3.9 mm 2 mps 687 mmHg 93%
    11:00 +9°C° 0 mm 2 mps 687 mmHg 92%
    12:00 +9°C° 1.1 mm 2 mps 687 mmHg 91%
    13:00 +9°C° 1.1 mm 2 mps 688 mmHg 90%
    14:00 +9°C° 1.1 mm 2 mps 688 mmHg 88%
    15:00 +9°C° 1.2 mm 2 mps 688 mmHg 90%
    16:00 +10°C° 1.2 mm 1 mps 688 mmHg 91%
    17:00 +10°C° 0 mm 1 mps 688 mmHg 92%
    18:00 +10°C° 0.8 mm 1 mps 689 mmHg 92%
    19:00 +10°C° 0.8 mm 1 mps 689 mmHg 92%
    20:00 +8°C° 0.8 mm 2 mps 690 mmHg 92%
    21:00 +8°C° 0.8 mm 2 mps 690 mmHg 92%
    22:00 +8°C° 0.8 mm 2 mps 690 mmHg 92%
    23:00 +8°C° 0.8 mm 2 mps 690 mmHg 91%

    Tomorrow, 2 April, Thursday

    Time Temperature Precipitation Wind Pressure Humidity
    00:00 +8°C° 0.8 mm 2 mps 690 mmHg 92%
    01:00 +8°C° 0.8 mm 2 mps 690 mmHg 92%
    02:00 +8°C° 0.8 mm 2 mps 690 mmHg 92%
    03:00 +8°C° 0.3 mm 2 mps 690 mmHg 92%
    04:00 +7°C° 0.3 mm 2 mps 690 mmHg 92%
    05:00 +8°C° 0.3 mm 1 mps 690 mmHg 91%
    06:00 +9°C° 0 mm 1 mps 690 mmHg 87%
    07:00 +10°C° 0 mm 1 mps 690 mmHg 83%
    08:00 +10°C° 0 mm 1 mps 690 mmHg 79%
    09:00 +12°C° 0 mm 1 mps 690 mmHg 74%
    10:00 +13°C° 0 mm 1 mps 690 mmHg 68%
    11:00 +15°C° 0 mm 2 mps 690 mmHg 62%
    12:00 +15°C° 0 mm 2 mps 690 mmHg 58%
    13:00 +16°C° 0 mm 2 mps 689 mmHg 55%
    14:00 +17°C° 0 mm 2 mps 689 mmHg 51%
    15:00 +17°C° 0 mm 2 mps 689 mmHg 52%
    16:00 +16°C° 0 mm 2 mps 688 mmHg 52%
    17:00 +16°C° 0 mm 3 mps 688 mmHg 53%
    18:00 +14°C° 0 mm 3 mps 688 mmHg 52%
    19:00 +12°C° 0 mm 3 mps 688 mmHg 51%
    20:00 +11°C° 0 mm 3 mps 688 mmHg 49%
    21:00 +10°C° 0 mm 3 mps 688 mmHg 47%
    22:00 +10°C° 0 mm 3 mps 688 mmHg 44%
    23:00 +9°C° 0 mm 3 mps 688 mmHg 42%

    Day after tomorrow, 3 April, Friday

    Time Temperature Precipitation Wind Pressure Humidity
    00:00 +9°C° 0 mm 3 mps 687 mmHg 40%
    01:00 +9°C° 0 mm 3 mps 687 mmHg 39%
    02:00 +9°C° 0 mm 2 mps 687 mmHg 37%
    03:00 +9°C° 0 mm 2 mps 687 mmHg 37%
    04:00 +9°C° 0 mm 2 mps 687 mmHg 36%
    05:00 +9°C° 0 mm 2 mps 687 mmHg 36%
    06:00 +10°C° 0 mm 2 mps 687 mmHg 39%
    07:00 +12°C° 0 mm 2 mps 688 mmHg 42%
    08:00 +13°C° 0 mm 2 mps 688 mmHg 45%
    09:00 +15°C° 0 mm 2 mps 688 mmHg 43%
    10:00 +17°C° 0 mm 2 mps 689 mmHg 41%
    11:00 +20°C° 0 mm 1 mps 689 mmHg 39%
    12:00 +21°C° 0 mm 1 mps 689 mmHg 37%
    13:00 +22°C° 0 mm 1 mps 689 mmHg 35%
    14:00 +22°C° 0 mm 1 mps 689 mmHg 33%
    15:00 +22°C° 0 mm 1 mps 688 mmHg 36%
    16:00 +21°C° 0 mm 2 mps 688 mmHg 38%
    17:00 +21°C° 0 mm 2 mps 688 mmHg 41%
    18:00 +19°C° 0 mm 2 mps 687 mmHg 41%
    19:00 +17°C° 0 mm 2 mps 687 mmHg 41%
    20:00 +14°C° 0 mm 3 mps 687 mmHg 41%
    21:00 +13°C° 0 mm 3 mps 687 mmHg 42%
    22:00 +13°C° 0 mm 3 mps 687 mmHg 42%
    23:00 +13°C° 0 mm 3 mps 687 mmHg 42%

    4 April, Saturday

    Time Temperature Precipitation Wind Pressure Humidity
    00:00 +13°C° 0 mm 2 mps 687 mmHg 43%
    01:00 +13°C° 0 mm 2 mps 687 mmHg 44%
    02:00 +13°C° 0 mm 2 mps 686 mmHg 45%
    03:00 +13°C° 0 mm 2 mps 686 mmHg 46%
    04:00 +13°C° 0 mm 2 mps 686 mmHg 46%
    05:00 +12°C° 0 mm 3 mps 686 mmHg 46%
    06:00 +14°C° 0 mm 2 mps 686 mmHg 48%
    07:00 +15°C° 0 mm 2 mps 686 mmHg 50%
    08:00 +16°C° 0 mm 2 mps 687 mmHg 52%
    09:00 +18°C° 0 mm 2 mps 687 mmHg 48%
    10:00 +21°C° 0 mm 1 mps 687 mmHg 44%
    11:00 +23°C° 0 mm 1 mps 687 mmHg 41%
    12:00 +23°C° 0 mm 1 mps 687 mmHg 39%
    13:00 +24°C° 0 mm 1 mps 687 mmHg 37%
    14:00 +25°C° 0 mm 1 mps 687 mmHg 35%
    15:00 +24°C° 0 mm 1 mps 686 mmHg 37%
    16:00 +24°C° 0 mm 1 mps 686 mmHg 40%
    17:00 +24°C° 0 mm 1 mps 686 mmHg 43%
    18:00 +21°C° 0 mm 2 mps 685 mmHg 43%
    19:00 +19°C° 0 mm 2 mps 685 mmHg 43%
    20:00 +17°C° 0 mm 2 mps 685 mmHg 44%
    21:00 +17°C° 0 mm 2 mps 685 mmHg 44%
    22:00 +18°C° 0 mm 1 mps 686 mmHg 44%
    23:00 +18°C° 0 mm 1 mps 686 mmHg 44%

    5 April, Sunday

    Time Temperature Precipitation Wind Pressure Humidity
    00:00 +16°C° 0 mm 1 mps 686 mmHg 46%
    01:00 +16°C° 0 mm 1 mps 686 mmHg 48%
    02:00 +15°C° 0 mm 1 mps 686 mmHg 50%
    03:00 +15°C° 0.1 mm 1 mps 686 mmHg 57%
    04:00 +15°C° 0.1 mm 1 mps 686 mmHg 64%
    05:00 +14°C° 0.1 mm 1 mps 687 mmHg 71%
    06:00 +14°C° 1 mm 1 mps 687 mmHg 76%
    07:00 +14°C° 1 mm 1 mps 688 mmHg 81%
    08:00 +14°C° 1 mm 2 mps 688 mmHg 85%
    09:00 +14°C° 1 mm 2 mps 688 mmHg 84%
    10:00 +14°C° 1 mm 2 mps 689 mmHg 82%
    11:00 +14°C° 1 mm 2 mps 689 mmHg 81%
    12:00 +16°C° 0.6 mm 2 mps 689 mmHg 75%
    13:00 +17°C° 0.6 mm 2 mps 689 mmHg 69%
    14:00 +18°C° 0.6 mm 2 mps 689 mmHg 63%
    15:00 +18°C° 0.3 mm 2 mps 689 mmHg 62%
    16:00 +19°C° 0.3 mm 2 mps 689 mmHg 60%
    17:00 +20°C° 0.3 mm 1 mps 688 mmHg 59%
    18:00 +17°C° 0 mm 2 mps 688 mmHg 60%
    19:00 +16°C° 0 mm 2 mps 688 mmHg 62%
    20:00 +15°C° 0 mm 2 mps 688 mmHg 64%
    21:00 +14°C° 0 mm 2 mps 688 mmHg 63%
    22:00 +14°C° 0 mm 2 mps 688 mmHg 62%
    23:00 +13°C° 0 mm 2 mps 688 mmHg 60%

    6 April, Monday

    Time Temperature Precipitation Wind Pressure Humidity
    00:00 +13°C° 0 mm 2 mps 688 mmHg 59%
    01:00 +13°C° 0 mm 2 mps 687 mmHg 58%
    02:00 +13°C° 0 mm 2 mps 687 mmHg 57%
    03:00 +13°C° 0 mm 2 mps 687 mmHg 57%
    04:00 +13°C° 0 mm 2 mps 686 mmHg 56%
    05:00 +13°C° 0 mm 2 mps 686 mmHg 55%
    06:00 +14°C° 0 mm 2 mps 686 mmHg 55%
    07:00 +15°C° 0 mm 1 mps 686 mmHg 55%
    08:00 +16°C° 0 mm 1 mps 686 mmHg 56%
    09:00 +18°C° 0 mm 1 mps 687 mmHg 53%
    10:00 +20°C° 0 mm 1 mps 687 mmHg 51%
    11:00 +20°C° 0 mm 2 mps 687 mmHg 48%
    12:00 +20°C° 0 mm 2 mps 687 mmHg 49%
    13:00 +21°C° 0 mm 2 mps 687 mmHg 49%
    14:00 +21°C° 0 mm 2 mps 687 mmHg 49%
    15:00 +21°C° 0.3 mm 2 mps 687 mmHg 53%
    16:00 +20°C° 0.3 mm 2 mps 686 mmHg 56%
    17:00 +20°C° 0.3 mm 2 mps 686 mmHg 60%
    18:00 +19°C° 0.1 mm 2 mps 686 mmHg 65%
    19:00 +18°C° 0.1 mm 1 mps 687 mmHg 69%
    20:00 +16°C° 0.1 mm 1 mps 687 mmHg 74%
    21:00 +15°C° 0.3 mm 1 mps 687 mmHg 78%
    22:00 +14°C° 0.3 mm 1 mps 687 mmHg 82%
    23:00 +13°C° 0.3 mm 1 mps 687 mmHg 85%
    Show more